Hourly Data Report for June 19, 2006

TORONTO CITY
ONTARIO

43°40'00.000" N
79°24'00.000" W
112.50 m
6158355
71508
XTO

Download Data

Hourly Data (June 2006)
Hourly Data Report for June 19, 2006
TIME
LST
Temp Definition
°C
Dew Point Definition
°C
Rel Hum Definition
%
Precip. Amount Definition
mm

Wind Dir Definition
10's deg

Wind Spd Definition
km/h
Visibility Definition
km
Stn Press Definition
kPa
Hmdx Definition


Wind Chill Definition


Weather Definition


00:00 25.9 19.0 66   LegendMM LegendMM   99.49 33   LegendNANA
01:00 25.1 18.9 69   LegendMM LegendMM   99.50 32   LegendNANA
02:00 23.4 19.0 76   LegendMM LegendMM   99.60 30   LegendNANA
03:00 21.9 19.6 87   LegendMM LegendMM   99.57 29   LegendNANA
04:00 21.6 19.5 88   LegendMM LegendMM   99.59 29   LegendNANA
05:00 21.4 19.3 88   LegendMM LegendMM   99.61 28   LegendNANA
06:00 20.4 19.2 93   LegendMM LegendMM   99.62 27   LegendNANA
07:00 19.9 19.3 96   LegendMM LegendMM   99.65     LegendNANA
08:00 19.8 19.5 98   LegendMM LegendMM   99.63     LegendNANA
09:00 19.9 19.4 97   LegendMM LegendMM   99.61     LegendNANA
10:00 21.2 20.4 95   LegendMM LegendMM   99.61 29   LegendNANA
11:00 23.2 20.4 84   LegendMM LegendMM   99.61 31   LegendNANA
12:00 24.0 20.0 78   LegendMM LegendMM   99.57 32   LegendNANA
13:00 25.2 20.4 75   LegendMM LegendMM   99.51 33   LegendNANA
14:00 24.2 19.8 76   LegendMM LegendMM   99.44 32   LegendNANA
15:00 23.4 19.3 78   LegendMM LegendMM   99.41 30   LegendNANA
16:00 23.1 19.0 78   LegendMM LegendMM   99.48 30   LegendNANA
17:00 24.2 18.8 72   LegendMM LegendMM   99.41 31   LegendNANA
18:00 22.8 15.7 64   LegendMM LegendMM   99.45 27   LegendNANA
19:00 21.7 16.0 70   LegendMM LegendMM   99.46 26   LegendNANA
20:00 24.0 16.4 62   LegendMM LegendMM   99.40 29   LegendNANA
21:00 23.2 14.5 58   LegendMM LegendMM   99.46 27   LegendNANA
22:00 20.3 13.6 65   LegendMM LegendMM   99.50     LegendNANA
23:00 20.8 14.5 67   LegendMM LegendMM   99.50     LegendNANA

Notes on Data Quality.

Legend

  • E = Estimated
  • M = Missing
  • NA = Not Available*
  • [empty] = Indicates an unobserved value
Date modified: